Precipitable_Water
0.51 0.45 0.54 0.69 0.80 0.81 0.76 0.62 0.44 0.75 0.81 0.48 0.45 0.33 0.37 0.40 0.29 0.33 0.32 0.32 0.29 0.26 0.29 0.24 0.24 0.23 0.25 0.27 0.26 0.20 0.23 0.19 0.14 0.15 0.17 0.19 0.17 0.20 0.21 0.15 0.15 0.18 0.16 0.14
0.50 0.47 0.48 0.60 0.79 0.78 0.68 0.50 0.47 0.66 0.66 0.37 0.42 0.45 0.42 0.35 0.33 0.29 0.30 0.31 0.35 0.34 0.32 0.26 0.25 0.25 0.30 0.28 0.24 0.22 0.24 0.15 0.12 0.13 0.18 0.19 0.15 0.19 0.22 0.20 0.18 0.11 0.12 0.14
0.49 0.50 0.47 0.51 0.72 0.78 0.70 0.50 0.37 0.47 0.51 0.48 0.41 0.44 0.44 0.32 0.31 0.29 0.29 0.30 0.31 0.28 0.25 0.27 0.25 0.28 0.30 0.28 0.26 0.28 0.22 0.16 0.13 0.12 0.17 0.21 0.16 0.18 0.20 0.20 0.17 0.15 0.15 0.16
0.49 0.50 0.48 0.49 0.67 0.77 0.68 0.53 0.41 0.44 0.28 0.34 0.45 0.50 0.46 0.34 0.29 0.30 0.31 0.31 0.31 0.28 0.26 0.28 0.26 0.28 0.28 0.30 0.30 0.23 0.20 0.16 0.17 0.15 0.17 0.17 0.17 0.17 0.17 0.16 0.17 0.15 0.16 0.16
0.48 0.48 0.52 0.53 0.59 0.74 0.62 0.47 0.41 0.46 0.39 0.41 0.44 0.47 0.42 0.41 0.35 0.36 0.33 0.32 0.32 0.31 0.28 0.27 0.26 0.31 0.30 0.26 0.25 0.20 0.22 0.21 0.21 0.17 0.16 0.15 0.14 0.15 0.16 0.16 0.18 0.18 0.18 0.19
0.48 0.49 0.53 0.51 0.56 0.68 0.56 0.59 0.61 0.44 0.42 0.39 0.38 0.39 0.44 0.42 0.39 0.40 0.39 0.35 0.33 0.32 0.33 0.36 0.33 0.34 0.30 0.26 0.23 0.24 0.25 0.21 0.18 0.15 0.18 0.18 0.15 0.17 0.18 0.19 0.22 0.22 0.16 0.22
0.47 0.50 0.50 0.49 0.55 0.62 0.60 0.61 0.57 0.45 0.37 0.38 0.35 0.44 0.45 0.41 0.40 0.35 0.37 0.38 0.35 0.36 0.41 0.36 0.33 0.30 0.28 0.27 0.29 0.29 0.23 0.21 0.21 0.17 0.18 0.12 0.21 0.26 0.22 0.20 0.22 0.24 0.23 0.24
0.46 0.49 0.50 0.45 0.52 0.58 0.56 0.64 0.60 0.53 0.39 0.39 0.44 0.42 0.42 0.40 0.38 0.37 0.34 0.34 0.37 0.39 0.32 0.26 0.22 0.24 0.24 0.25 0.28 0.25 0.26 0.23 0.18 0.15 0.14 0.20 0.21 0.21 0.19 0.19 0.20 0.26 0.23 0.26
0.44 0.49 0.45 0.45 0.49 0.59 0.59 0.60 0.71 0.59 0.45 0.36 0.47 0.41 0.43 0.34 0.34 0.32 0.36 0.41 0.40 0.33 0.26 0.23 0.17 0.15 0.17 0.19 0.20 0.25 0.25 0.26 0.21 0.18 0.14 0.11 0.23 0.27 0.25 0.25 0.14 0.28 0.29 0.28
0.44 0.47 0.45 0.46 0.48 0.59 0.58 0.58 0.73 0.61 0.45 0.50 0.51 0.43 0.37 0.39 0.36 0.34 0.37 0.34 0.33 0.34 0.26 0.19 0.17 0.19 0.19 0.18 0.17 0.16 0.18 0.20 0.15 0.17 0.16 0.19 0.27 0.26 0.28 0.15 0.22 0.33 0.31 0.32
0.43 0.44 0.47 0.48 0.49 0.58 0.60 0.63 0.74 0.63 0.51 0.51 0.55 0.46 0.40 0.39 0.38 0.34 0.36 0.30 0.29 0.27 0.21 0.23 0.20 0.19 0.19 0.19 0.21 0.18 0.16 0.16 0.16 0.17 0.18 0.13 0.29 0.25 0.19 0.30 0.34 0.33 0.34 0.35
0.44 0.47 0.49 0.50 0.53 0.57 0.67 0.61 0.73 0.74 0.55 0.51 0.57 0.53 0.52 0.45 0.44 0.37 0.33 0.28 0.23 0.28 0.25 0.23 0.22 0.18 0.20 0.18 0.16 0.23 0.16 0.19 0.20 0.21 0.22 0.30 0.29 0.30 0.35 0.34 0.34 0.35 0.35 0.37
0.46 0.49 0.53 0.54 0.54 0.63 0.71 0.66 0.68 0.61 0.52 0.48 0.46 0.44 0.51 0.53 0.47 0.43 0.27 0.30 0.30 0.27 0.32 0.26 0.22 0.18 0.21 0.16 0.18 0.21 0.21 0.25 0.19 0.21 0.24 0.27 0.29 0.32 0.34 0.36 0.36 0.38 0.38 0.36
0.53 0.52 0.51 0.55 0.68 0.72 0.72 0.64 0.62 0.54 0.47 0.38 0.40 0.51 0.42 0.47 0.44 0.40 0.34 0.29 0.30 0.26 0.25 0.18 0.17 0.15 0.18 0.18 0.20 0.19 0.26 0.22 0.20 0.19 0.25 0.27 0.30 0.32 0.34 0.36 0.39 0.39 0.38 0.35
0.50 0.55 0.67 0.71 0.69 0.66 0.65 0.60 0.57 0.55 0.43 0.36 0.38 0.42 0.45 0.44 0.39 0.30 0.29 0.26 0.20 0.17 0.16 0.15 0.12 0.16 0.13 0.16 0.14 0.15 0.23 0.21 0.19 0.18 0.25 0.24 0.29 0.34 0.37 0.37 0.37 0.38 0.35 0.33
0.72 0.72 0.72 0.70 0.65 0.60 0.51 0.44 0.52 0.52 0.46 0.38 0.32 0.44 0.41 0.37 0.34 0.30 0.26 0.24 0.21 0.20 0.20 0.16 0.17 0.21 0.17 0.13 0.11 0.18 0.19 0.23 0.26 0.23 0.29 0.31 0.32 0.37 0.39 0.37 0.36 0.36 0.33 0.32
0.71 0.66 0.63 0.62 0.59 0.55 0.45 0.40 0.49 0.53 0.47 0.36 0.30 0.28 0.35 0.37 0.32 0.28 0.25 0.25 0.23 0.22 0.19 0.17 0.17 0.14 0.16 0.15 0.12 0.20 0.21 0.24 0.26 0.31 0.30 0.28 0.31 0.31 0.36 0.36 0.35 0.33 0.30 0.29
0.66 0.61 0.57 0.55 0.53 0.50 0.43 0.47 0.50 0.50 0.39 0.36 0.25 0.26 0.27 0.34 0.25 0.23 0.28 0.22 0.22 0.23 0.20 0.18 0.19 0.20 0.21 0.17 0.20 0.22 0.26 0.29 0.31 0.31 0.34 0.34 0.35 0.35 0.33 0.33 0.31 0.28 0.27 0.27
0.57 0.55 0.55 0.53 0.48 0.40 0.40 0.43 0.43 0.43 0.34 0.25 0.24 0.20 0.18 0.31 0.28 0.27 0.26 0.26 0.19 0.24 0.22 0.23 0.23 0.22 0.18 0.22 0.22 0.25 0.29 0.29 0.30 0.31 0.30 0.34 0.33 0.32 0.31 0.29 0.28 0.27 0.27 0.27
0.53 0.50 0.39 0.34 0.41 0.42 0.37 0.31 0.25 0.26 0.30 0.30 0.22 0.25 0.18 0.25 0.24 0.23 0.21 0.25 0.21 0.17 0.23 0.25 0.22 0.23 0.27 0.27 0.30 0.31 0.32 0.33 0.32 0.29 0.31 0.33 0.32 0.32 0.30 0.28 0.28 0.28 0.27 0.26
0.45 0.39 0.38 0.41 0.41 0.34 0.28 0.20 0.20 0.22 0.23 0.26 0.26 0.22 0.18 0.26 0.19 0.20 0.27 0.22 0.23 0.17 0.20 0.20 0.19 0.19 0.24 0.30 0.32 0.33 0.34 0.35 0.36 0.37 0.37 0.36 0.34 0.31 0.30 0.29 0.29 0.29 0.28 0.26
0.41 0.40 0.42 0.38 0.28 0.22 0.17 0.17 0.18 0.19 0.18 0.23 0.22 0.23 0.25 0.27 0.29 0.23 0.26 0.20 0.22 0.17 0.25 0.19 0.16 0.25 0.28 0.29 0.29 0.31 0.32 0.33 0.33 0.35 0.35 0.36 0.34 0.32 0.31 0.31 0.30 0.29 0.28 0.26
0.36 0.30 0.23 0.22 0.18 0.13 0.13 0.12 0.15 0.17 0.23 0.25 0.24 0.21 0.23 0.26 0.28 0.23 0.21 0.17 0.17 0.24 0.18 0.17 0.23 0.26 0.26 0.27 0.30 0.31 0.33 0.33 0.31 0.29 0.30 0.30 0.31 0.34 0.31 0.30 0.30 0.28 0.27 0.25
0.21 0.17 0.13 0.17 0.14 0.16 0.20 0.18 0.18 0.23 0.23 0.23 0.25 0.22 0.22 0.24 0.21 0.22 0.16 0.21 0.22 0.16 0.15 0.16 0.23 0.24 0.26 0.29 0.29 0.28 0.28 0.30 0.29 0.29 0.30 0.31 0.30 0.29 0.28 0.27 0.27 0.26 0.24 0.24
0.19 0.20 0.14 0.16 0.21 0.23 0.24 0.25 0.23 0.26 0.28 0.26 0.23 0.22 0.22 0.20 0.18 0.21 0.19 0.16 0.15 0.17 0.17 0.25 0.27 0.27 0.27 0.29 0.29 0.29 0.30 0.30 0.31 0.32 0.31 0.30 0.30 0.28 0.27 0.26 0.26 0.25 0.24 0.23
0.24 0.24 0.20 0.24 0.21 0.21 0.24 0.26 0.26 0.32 0.30 0.28 0.22 0.18 0.16 0.16 0.18 0.16 0.15 0.14 0.14 0.18 0.27 0.29 0.29 0.27 0.28 0.29 0.29 0.30 0.31 0.32 0.32 0.32 0.31 0.30 0.28 0.27 0.27 0.26 0.25 0.24 0.23 0.20
0.24 0.24 0.30 0.28 0.25 0.24 0.26 0.27 0.28 0.34 0.29 0.19 0.20 0.14 0.15 0.20 0.16 0.15 0.18 0.18 0.24 0.27 0.28 0.31 0.30 0.29 0.29 0.29 0.30 0.31 0.32 0.32 0.31 0.31 0.30 0.29 0.29 0.27 0.27 0.26 0.25 0.21 0.17 0.15
Wind_Speed
44 42 42 41 40 45 43 40 37 38 39 36 38 39 37 34 34 33 29 29 29 28 27 28 26 25 22 22 21 20 20 19 19 22 17 20 21 20 19 19 17 20 23 27
44 42 41 40 40 43 39 35 36 37 40 35 33 32 36 32 31 30 28 28 28 27 26 23 25 22 19 21 22 20 19 19 17 19 20 19 20 19 17 18 18 21 21 20
44 42 41 41 42 43 37 35 31 35 37 36 33 33 31 30 30 29 27 26 25 25 24 22 23 21 21 21 21 17 19 20 22 19 16 16 19 19 19 19 19 21 21 24
44 43 42 42 43 43 36 34 32 34 35 38 33 31 31 30 25 26 26 24 25 23 22 22 22 21 19 21 18 19 19 20 21 21 17 16 16 17 19 21 21 22 23 25
45 44 44 43 44 43 36 31 30 32 28 38 34 31 29 31 27 26 28 25 23 21 24 23 22 23 22 19 20 20 19 17 15 18 19 18 19 20 21 21 21 22 22 22
46 46 46 45 45 46 35 34 31 28 30 34 33 31 30 29 23 23 27 26 24 24 19 21 19 19 19 17 19 19 17 15 15 17 14 15 18 19 17 17 15 16 19 20
47 48 48 47 46 48 34 33 31 29 26 31 36 33 28 27 26 21 22 25 24 21 17 14 14 15 16 16 15 16 16 16 13 12 10 16 10 8 10 13 16 16 16 17
48 48 49 47 47 48 36 34 30 28 26 31 27 30 29 26 24 19 19 22 21 20 18 14 13 14 14 15 15 16 15 15 12 12 14 9 11 12 13 14 14 13 14 14
49 50 48 46 46 47 38 35 29 28 25 30 29 27 30 26 24 20 18 18 20 20 17 16 15 15 15 15 15 16 15 14 13 12 13 13 5 6 9 11 17 11 12 14
50 49 47 46 47 47 39 33 30 26 25 26 28 27 27 24 23 18 19 21 19 19 16 16 15 14 17 13 14 14 15 13 14 14 12 10 8 8 10 13 9 10 13 12
51 49 47 46 47 45 39 34 31 25 22 23 27 24 26 23 20 21 23 19 19 18 16 15 13 12 14 12 13 12 14 12 11 13 12 14 9 8 12 10 10 12 12 11
52 49 47 46 46 43 38 33 31 26 20 22 22 19 18 25 22 19 24 16 21 17 15 13 12 11 11 13 10 11 11 11 9 9 9 7 8 10 10 12 11 11 11 11
51 49 48 47 45 42 37 36 30 26 23 21 20 19 17 18 18 21 20 17 16 15 14 13 10 10 11 11 11 10 13 10 10 10 11 11 11 10 11 11 10 10 10 11
50 49 48 46 44 40 37 33 31 26 22 19 17 20 18 18 17 17 18 16 15 15 14 11 10 9 9 9 7 11 9 12 12 12 12 10 12 11 11 10 10 10 10 11
49 48 48 46 43 39 34 31 26 25 20 21 21 18 14 17 18 16 16 17 17 15 12 11 10 7 7 7 8 9 10 11 11 11 12 12 11 11 10 10 10 10 11 12
50 48 46 43 40 38 34 27 22 23 20 21 16 16 16 17 17 17 15 15 14 12 11 10 8 7 7 6 7 5 8 8 10 10 10 10 10 10 10 10 10 10 10 11
46 45 44 41 38 33 26 24 26 24 21 18 18 18 17 17 16 16 15 14 11 11 9 7 7 7 6 6 7 5 6 7 8 6 7 7 9 10 10 10 10 10 10 11
44 43 41 37 33 28 24 24 24 21 19 18 17 17 19 17 18 14 13 12 11 8 7 7 6 5 5 6 4 5 5 5 5 6 8 7 7 9 10 11 11 11 11 12
43 40 37 31 25 23 25 24 22 18 17 18 17 21 18 19 15 15 12 10 9 8 7 6 6 5 5 3 5 5 5 6 7 7 7 7 8 9 9 10 11 11 12 13
37 32 26 22 24 29 25 20 19 16 15 14 19 19 17 19 17 13 12 9 8 7 7 6 6 4 4 5 7 6 7 7 7 8 9 9 10 10 10 10 11 12 14 15
29 25 24 31 28 24 18 17 17 17 15 16 18 20 19 18 14 13 9 8 7 7 6 6 6 6 5 5 5 6 6 8 9 9 10 11 10 9 9 10 11 13 14 16
26 29 31 27 21 19 16 17 16 16 16 18 21 20 18 15 13 10 8 7 6 5 6 5 6 5 5 5 6 6 7 8 9 9 9 8 8 9 10 10 11 13 14 16
30 27 22 19 15 16 16 18 16 16 17 21 21 18 15 13 10 8 6 6 5 6 6 6 4 4 5 5 6 6 7 7 7 7 6 6 8 9 10 11 13 15 16 18
23 19 18 15 15 14 15 15 17 16 20 22 19 15 12 11 8 7 6 5 6 6 6 6 5 5 5 5 6 6 6 6 5 3 4 5 7 9 11 13 14 16 17 19
18 15 13 12 15 15 16 16 17 20 20 19 16 12 10 9 7 6 5 6 6 7 6 4 4 4 4 5 6 5 5 4 4 5 6 7 9 11 12 14 15 16 18 19
15 12 15 16 16 15 16 17 17 18 17 15 12 10 9 8 7 7 7 6 6 6 5 5 4 5 5 5 5 5 5 5 6 8 9 9 11 12 13 14 15 16 17 17
14 13 12 14 15 15 16 15 14 15 14 12 11 8 8 8 8 7 6 6 5 5 5 5 5 5 5 5 5 6 6 6 8 8 9 9 10 11 12 13 14 15 16 18
Wind_Direction
227 225 224 221 219 211 213 219 220 217 215 220 230 232 235 236 237 238 243 243 243 248 244 237 238 242 247 241 240 245 249 257 253 256 269 272 270 268 265 273 274 274 282 284
223 222 220 217 214 208 211 215 219 218 216 224 223 231 229 234 231 231 234 236 238 243 235 239 238 242 247 236 237 244 247 255 250 263 265 265 262 259 261 266 278 277 282 289
220 218 217 214 211 207 208 210 213 214 218 224 229 222 224 227 228 229 229 231 235 233 232 240 232 234 239 237 239 253 251 259 255 267 284 266 252 257 255 260 272 282 280 284
217 215 214 211 207 203 207 211 215 218 217 219 222 218 226 219 222 226 223 226 230 228 231 232 231 229 232 238 240 243 249 258 256 262 264 267 259 255 256 262 268 276 285 292
214 213 210 207 204 202 208 208 210 210 213 208 215 216 220 216 219 217 220 227 225 229 235 237 234 237 230 235 234 240 246 259 265 262 261 260 262 261 263 266 273 280 286 292
211 210 207 205 203 201 206 209 209 206 210 205 212 216 218 220 216 225 229 225 228 232 235 231 232 231 226 244 230 234 239 252 252 264 248 253 264 258 260 267 280 284 284 296
209 207 206 203 201 200 205 206 204 206 208 209 214 214 218 215 219 224 221 219 220 222 218 214 221 229 234 230 229 234 239 243 252 261 248 256 267 277 270 277 277 276 285 293
206 204 202 201 200 200 203 201 205 208 214 210 212 216 214 215 210 215 216 214 217 211 208 205 212 221 228 231 233 231 238 237 248 251 248 256 260 265 273 277 282 273 282 290
201 199 198 198 198 197 201 203 208 209 209 211 208 211 207 206 208 211 214 213 197 199 206 217 220 227 226 229 232 236 233 245 250 244 260 267 292 268 280 285 282 262 273 291
196 195 196 196 195 196 199 203 204 208 208 208 199 203 200 204 203 206 194 190 199 209 217 222 225 226 221 225 222 225 225 234 239 249 258 274 260 268 280 279 291 268 281 284
193 193 193 193 192 193 196 197 198 195 200 192 199 196 196 195 200 199 195 197 211 210 213 215 220 225 218 226 221 219 218 229 239 251 257 267 250 265 278 292 282 279 279 278
189 189 189 188 187 189 189 190 191 190 193 188 183 185 197 197 198 197 192 210 195 205 208 214 212 218 213 219 217 217 229 238 250 254 267 259 265 283 287 289 279 279 275 274
181 182 181 179 180 181 182 180 182 183 179 175 182 185 186 186 188 195 199 196 198 203 206 202 210 217 213 216 230 220 232 238 253 262 257 258 268 277 282 284 280 276 274 279
167 168 170 171 172 174 175 179 177 179 177 176 178 183 189 195 196 193 193 191 197 191 194 200 207 212 220 222 240 234 236 234 248 261 262 265 266 268 274 277 278 275 275 283
159 161 162 164 165 165 166 166 172 175 180 174 167 163 176 181 179 179 181 179 182 183 190 197 202 209 217 232 241 241 247 249 252 275 256 261 262 261 265 266 273 278 282 283
152 154 157 161 163 163 163 165 172 172 171 170 176 174 166 166 166 166 168 169 175 184 188 194 203 216 232 232 249 264 252 265 262 272 257 264 257 257 260 260 272 283 287 290
150 152 153 155 158 163 172 174 170 168 169 172 167 170 172 168 165 165 165 170 174 179 184 197 202 207 229 243 260 261 262 262 264 261 255 258 253 260 263 263 268 277 289 296
146 148 149 151 153 156 160 161 165 169 166 169 171 169 169 173 169 169 174 174 178 183 187 194 199 206 232 250 263 273 269 269 262 256 282 270 262 268 264 264 266 276 289 298
146 147 149 151 156 161 160 159 161 161 168 169 172 169 170 171 168 168 171 176 177 184 190 195 207 215 240 258 264 267 263 264 266 271 277 274 270 275 268 265 271 278 289 298
149 153 155 158 157 152 155 157 163 163 164 164 163 164 165 168 169 169 170 176 178 188 198 197 227 231 244 274 283 278 274 280 271 270 273 273 274 272 271 275 279 286 293 299
154 156 155 150 152 156 159 160 164 164 161 161 162 162 161 165 168 166 173 180 189 203 204 219 230 247 251 270 285 290 288 286 288 286 283 282 274 269 274 283 289 293 297 302
151 149 148 151 156 160 159 162 163 165 163 162 160 160 160 162 167 171 182 186 203 211 199 226 252 254 242 263 279 290 295 294 296 290 288 278 269 275 284 290 295 301 305 306
142 145 151 159 160 160 165 164 162 160 161 160 160 160 165 167 172 175 185 195 207 185 228 245 275 229 253 266 284 293 300 303 301 296 281 276 281 288 292 294 300 302 305 307
149 151 152 156 160 159 157 153 156 158 158 160 161 162 170 173 178 188 194 208 208 228 237 244 242 243 258 270 284 288 300 306 309 299 299 299 298 298 300 301 301 303 306 308
152 152 155 155 154 154 159 161 156 155 157 161 162 166 173 179 184 199 200 213 230 239 245 239 241 247 262 274 278 286 291 295 294 294 298 301 301 303 306 307 308 309 309 311
157 154 150 151 150 152 157 155 155 162 164 167 172 177 185 196 196 210 224 221 243 240 237 229 241 260 271 273 280 284 282 282 291 296 297 299 303 306 309 310 312 314 315 316
161 156 150 152 154 155 162 166 169 175 178 183 187 193 203 202 217 222 234 248 245 219 220 244 255 259 276 283 281 278 279 286 295 299 301 305 309 312 313 316 320 321 322 322